Location: Peralejo
(40.5415°N, 4.1259°W)
Time: 02:51:25
(UTC+00:00)

Cosmos 1980 Rocket - Pass Details

Date: 18 April 2024
Orbit: 827 x 851 km, 71.0° (Epoch: 28 May)

Event Time Altitude Azimuth Distance (km) Brightness Sun altitude
Exits shadow 21:55:30 26° 47° (NE) 1,611 3.6 -28.9°
Drops below altitude 10° 21:57:59 10° 34° (NE) 2,456 4.8 -29.2°
Sets 22:00:30 0° 29° (NNE) 3,399 5.6 -29.5°
